Location: Esp�n
(42.4593°N, 0.2047°W)
Time: 20:23:57
(UTC+00:00)

Cosmos 1515 Rocket - Pass Details

Date: 07 June 2020
Orbit: 605 x 631 km, 82.5° (Epoch: 13 July)

Event Time Altitude Azimuth Distance (km) Brightness Sun altitude
Rises 03:23:39 0° 356° (N) 2,891 7.6 -9.6°
Reaches altitude 10° 03:25:55 10° 1° (N) 1,977 6.8 -9.3°
Maximum altitude 03:30:13 56° 79° (E) 732 4.3 -8.7°
Drops below altitude 10° 03:34:28 10° 158° (SSE) 1,951 5.9 -8.1°
Sets 03:36:42 0° 163° (SSE) 2,848 6.7 -7.8°
